Weather in Louisville

United States     38°15′16″N   85°46′05″W
temp.,
°C
wind,
m/s
gust,
m/s
humid.,
%
clouds,
%
prec.,
mm/h
press.,
hPa
HPBL,
m
7 may, fri
fri723:00+10wnw4994100 9.9 1017661
02:00+9nw4109496 9.9 1017552
05:00+5nw210900 0.0 1017314
08:00+6nw27745 0.0 1019229
11:00+13wnw47610 0.0 1019992
14:00+17w493922 0.0 10172322
17:00+11wnw210928 3.0 1016681
20:00+12wnw411882 4.4 1016705
8 may, sat
sat823:00+10wnw311903 0.0 1017375
02:00+6n38865 0.0 1019241
05:00+5n12820 0.0 102054
08:00+6ne127312 0.0 1022151
11:00+12ne115293 0.0 1021893
14:00+11ssw2254100 0.0 1021860
17:00+9sse2483100 0.1 1019308
20:00+8sse2595100 1.3 1018345
9 may, sun
sun923:00+7ese3897100 2.8 1018311
02:00+8se41198100 2.8 1014335
05:00+10s41797100 0.3 1010466
08:00+14ssw71991100 0.6 1008989
11:00+16sw72093100 2.3 10081424
14:00+17sw82092100 3.8 10061414
17:00+19sw81894100 3.2 10051351
20:00+18sw81896100 5.3 10061191
10 may, mon
mon1023:00+16nw5996100 2.8 1009588
02:00+10nnw379595 2.8 1013434
05:00+8n479299 0.0 1014499
08:00+8nne468590 0.1 1018558
11:00+11ne457096 0.0 1018946
14:00+13nne4662100 0.0 10191263
17:00+15nne4656100 0.0 10191453
20:00+12nne4865100 0.0 1021778
11 may, tue
tue1123:00+10nne386885 0.0 1023608
02:00+7n397275 0.0 1024364
05:00+5n39770 0.0 1026303
08:00+5nne48720 0.0 1028281
11:00+11nne45520 0.0 1028997
14:00+15nne46380 0.0 10281558
17:00+15nne46425 0.0 10271640
20:00+12ne376460 0.0 1028342